Powrót do katalogu

CZ-6A DEB

AktywnySSO
NORAD 55901·DEBRIS·🇨🇳 China

Wystrzelony Nov 11, 2022 z Taiyuan Satellite Launch Center

Loading…

Następne Przeloty (najbliższe 24 godziny)

TLE

ŚwieżeSource: Space-Track

Epoka: Sep 14, 2026, 09:55 UTC

1 55901U 22151AAZ 26257.41348971 -.00000145  00000-0 -63488-4 0  9995
2 55901  98.8805 240.5265 0080980 141.7478 218.9472 14.03390627190199

Śledź CZ-6A DEB w czasie rzeczywistym z AllMySat

Download on the App Store